Home   Weather   Adelaide   Past weeks

Flag for Australia Past Weather in Adelaide, South Australia, Australia — Yesterday and Last 2 Weeks

Now
66 °F

Passing clouds.


Feels Like: 66 °F
Forecast: 60 / 72 °F
Wind: 16 mph from Southwest

Location: Adelaide Airport

Current Time: Feb 23, 2017 at 6:40:50 am

Latest Report: Feb 23, 2017 at 6:00 am


Visibility: N/A

Pressure: 30.04 "Hg

Humidity: 73%

Dew Point: 57 °F

Location of AdelaideLocation

Past Weather in Adelaide — Graph

°F

Adelaide Temperature Yesterday

Maximum temperature yesterday: 84 °F (at 9:30 am)
Minimum temperature yesterday: 68 °F (at 10:00 pm)
Average temperature yesterday: 75 °F

High & Low Weather Summary for the Past Weeks

 TemperatureHumidityPressure
High106 °F (Feb 8, 2:30 pm)94% (Feb 19, 3:30 am)30.12 "Hg (Feb 19, 3:30 am)
Low52 °F (Feb 21, 4:00 am)16% (Feb 22, 9:00 am)29.68 "Hg (Feb 9, 5:30 am)
Average72 °F57%29.91 "Hg
* Reported Feb 8 4:30 am — Feb 23 5:00 am, Adelaide, Weather by CustomWeather, © 2017

Note: Actual official high and low records may vary slightly from our data, if they occured in-between our weather recording intervals... More about our weather records

Advertising

Adelaide Weather History for the Previous 24 Hours

Scroll right to see more
 ConditionsComfort  
Time TempWeatherWind HumidityBarometerVisibility
5:00 am
Thu, Feb 23
66 °FPassing clouds.15 mph68%30.01 "HgN/A
4:30 am66 °FPassing clouds.17 mph68%30.01 "HgN/A
4:00 am66 °FPassing clouds.15 mph68%30.01 "HgN/A
3:30 am66 °FPassing clouds.17 mph68%30.01 "HgN/A
3:00 am66 °FPassing clouds.14 mph68%30.01 "HgN/A
2:30 am66 °FPassing clouds.13 mph68%30.01 "HgN/A
2:00 am66 °FPassing clouds.15 mph68%30.01 "HgN/A
1:30 am66 °FPassing clouds.15 mph64%30.01 "HgN/A
1:00 am68 °FPassing clouds.15 mph64%30.01 "HgN/A
12:30 am68 °FPassing clouds.17 mph69%30.01 "HgN/A
12:00 am68 °FPassing clouds.17 mph69%30.01 "HgN/A
11:30 pm
Wed, Feb 22
68 °FPassing clouds.17 mph64%30.01 "HgN/A
11:00 pm68 °FPassing clouds.18 mph64%30.01 "HgN/A
10:30 pm68 °FPassing clouds.16 mph64%30.01 "HgN/A
10:00 pm68 °FPassing clouds.15 mph64%30.01 "HgN/A
9:30 pm70 °FPassing clouds.17 mph57%29.98 "HgN/A
9:00 pm70 °FPassing clouds.17 mph57%29.98 "HgN/A
8:30 pm70 °FMild.18 mph57%29.95 "HgN/A
8:00 pm72 °FPassing clouds.18 mph53%29.95 "HgN/A
7:30 pm72 °FPassing clouds.20 mph53%29.92 "HgN/A
7:00 pm73 °FPassing clouds.20 mph47%29.92 "HgN/A
6:30 pm73 °FPassing clouds.17 mph47%29.89 "HgN/A
6:00 pm75 °FPassing clouds.20 mph44%29.89 "HgN/A
5:30 pm75 °FPassing clouds.20 mph44%29.89 "HgN/A
5:00 pm75 °FSunny.18 mph47%29.89 "Hg10 mi
4:30 pm77 °FSunny.18 mph39%29.89 "Hg10 mi
4:00 pm77 °FSunny.18 mph42%29.86 "Hg10 mi
3:30 pm75 °FSunny.21 mph41%29.86 "Hg10 mi
3:00 pm77 °FSunny.22 mph42%29.86 "Hg10 mi
2:30 pm77 °FSunny.23 mph39%29.86 "Hg10 mi
2:00 pm77 °FSunny.22 mph39%29.86 "Hg10 mi
1:30 pm77 °FSunny.16 mph47%29.83 "Hg10 mi
1:00 pm79 °FSunny.14 mph37%29.83 "Hg10 mi
12:00 pm73 °FScattered clouds.10 mph65%29.83 "HgN/A
11:30 am73 °FSunny.17 mph65%29.86 "Hg10 mi
11:00 am73 °FPassing clouds.24 mph69%29.86 "Hg6 mi
10:30 am81 °FSunny.22 mph34%29.83 "Hg10 mi
10:13 am82 °FSunny.23 mph25%29.83 "Hg10 mi
10:00 am82 °FSunny.29 mph19%29.80 "Hg10 mi
9:51 am84 °FSunny.22 mph16%29.80 "Hg10 mi
9:30 am84 °FSunny.21 mph18%29.77 "Hg10 mi
9:00 am82 °FSunny.21 mph16%29.77 "Hg10 mi
8:30 am81 °FSunny.22 mph17%29.77 "Hg10 mi
8:00 am79 °FSunny.20 mph18%29.74 "Hg10 mi
7:30 am77 °FSunny.17 mph21%29.74 "Hg10 mi
7:00 am77 °FClear.18 mph19%29.74 "Hg10 mi
6:30 am79 °FClear.22 mph18%29.74 "Hg10 mi
6:00 am79 °FClear.22 mph17%29.74 "Hg10 mi
Weather by CustomWeather, © 2017

See weather overviewHow to use our weather pages